STARLINK-4420, 53654

Orbit data source: Space-Track

STARLINK-4420, 53654 is a payload satellite owned by SpaceX/Seattle (US) in SSO that was launched on Wed, 31 Aug 2022 UTC via an FALCON 9 launch vehicle from the Air Force Western Test Range (AFWTR). Payload-class satellites include a variety of spacecraft equipped with specific instruments for various scientific and technological missions. These include communications satellites like Starlink; space stations such as the ISS; scientific satellites like the Hubble; Earth observation satellites from companies like Planet Labs, Umbra, and HawkEye 360; GPS; miniature CubeSats for education and research; and military/defense satellites.

Loading next visibility...
Identifier
53654, 2022-105G
Orbit
SSO
Last TLE update
1 day ago
Origin
Manufacturer
SpaceX/Seattle
Mission
Operational Commercial Communications
Bus & Motor
STARLINK, Unknown motor
Mass
300 kg wet, ~290 kg dry
Launch date (UTC)
2022-08-31 (3 years ago)
Launch vehicle
FALCON 9
Launch site
Air Force Western Test Range (AFWTR)
Object type
Payload
Rocket body
Debris
Shape & HBR
Box + 1 Pan, 4.4 m
Radar Cross Section
13.562 m², Large (>1 m²)

Expand to show TLE details & history

TLE from 1 day ago
0 STARLINK-4420
1 53654U 22105G   25198.21584074  .00000533  00000-0  46068-4 0  9998
2 53654  97.6578  79.4019 0003046  72.9346 287.2212 15.01260450157901
Epoch: 2025-07-17T05:10Z
TLE epoch observation values (Epoch: 2025-07-17T05:10:48.639Z)
Latitude
-0.00003°
Longitude
66.4144°
Altitude
565.441 km
Speed
7.579 km/s
True Right ascension
05h 17m 36s
True Declination
0° 00' 00"
Sunlit
Object was in daylight at epoch
Visualization orbit readout
Latitude
-8.52659°
Longitude
68.54724°
Altitude
567.122 km
Speed
7.577 km/s
Apparent Right ascension
05h 37m 14s
Apparent Declination
-23° 26' 34"
Sunlit
Object is in daylight
Visualization observer readout
Local Sidereal Time
17:52:49
Azimuth
12.452° NNE
Elevation
-73.201°
Doppler factor
1
Orbital elements
Apogee altitude
562.124 km
Perigee altitude
557.897 km
Semi-major axis
6,938.147 km
Eccentricity
0.0003
Inclination
97.6578°
RAAN
79.4019°
Arg. of periapsis
72.9346°
True anomaly
287.18786°
Mean anomaly
287.2212°
Eccentric anomaly
287.20453°
Mean motion
3.75559 °/min
Orbital period
95.86 mins
BSTAR
0.000046068
Loading maneuver chart data...
Loading SW <> Apogee altitude chart data...
Loading historical data...
Loading historical data...
Loading historical data...
Loading historical data...
Loading historical data...
Loading historical data...
Loading historical data...
|